Location: Foligno
(42.9600°N, 12.7050°E)
Time: 09:58:55
(UTC+02:00)

ISS - Pass Details

Date: 16 May 2018
Orbit: 402 x 407 km, 51.6° (Epoch: 27 May)

Event Time Altitude Azimuth Distance (km) Brightness Sun altitude
Rises 05:04:51 0° 305° (NW) 2,319 -0.2 -7.2°
Reaches altitude 10° 05:07:06 10° 317° (NW) 1,458 -1.1 -6.8°
Maximum altitude 05:10:01 30° 21° (NNE) 761 -1.7 -6.4°
Drops below altitude 10° 05:12:57 10° 84° (E) 1,455 0.1 -6.0°
Sets 05:15:11 0° 96° (E) 2,313 0.9 -5.6°
